Location: Buchdorf
(48.7842°N, 10.8275°E)
Time: 08:32:28
(UTC+00:00)

Cosmos 1726 Rocket - Pass Details

Date: 09 April 2020
Orbit: 602 x 630 km, 82.5° (Epoch: 24 May)

Event Time Altitude Azimuth Distance (km) Brightness Sun altitude
Rises 18:55:50 0° 188° (S) 2,887 6.8 -9.5°
Reaches altitude 10° 18:58:03 10° 188° (S) 1,990 6.0 -9.9°
Maximum altitude 19:02:28 89° 95° (E) 634 3.6 -10.5°
Drops below altitude 10° 19:06:58 10° 10° (N) 2,019 6.4 -11.2°
Sets 19:09:13 0° 10° (N) 2,934 7.2 -11.5°
